Voltar ao catálogo

FENGYUN 1C DEB

LostSSO
NORAD 37479·DEBRIS·🇨🇳 China

Lançado May 10, 1999 de Taiyuan Satellite Launch Center

Loading…

Próximas Passagens (próximas 24 horas)

TLE

ObsoletoSource: Space-Track

Época: Oct 25, 2022, 10:11 UTC

1 37479U 99025EJZ 22298.42449387  .00001088  00000-0  60917-3 0  9992
2 37479  98.7657   1.7702 0033799 235.4026 124.3956 14.12500732706798

Acompanhe FENGYUN 1C DEB em tempo real com AllMySat

Download on the App Store